{"data":{"norad_id":59721,"epoch":"2026-09-21T03:47:25.309248Z","epoch_age_seconds":117480,"freshness":"FRESH","line1":"1 59721U 24088P   26264.15793182 -.00000167  00000+0  63981-5 0  9998","line2":"2 59721  53.1636 310.9621 0001146  95.6023 264.5109 15.31702765133808","mean_motion":15.31702765,"eccentricity":0.0001146,"inclination_deg":53.1636,"raan_deg":310.9621,"arg_perigee_deg":95.6023,"mean_anomaly_deg":264.5109,"bstar":6.3981e-6,"rev_number":13380,"period_min":94.013018250313,"perigee_km":469.94687255784,"apogee_km":471.51663327601,"semimajor_km":6848.8687529169,"source":"CELESTRAK","updated_at":"2026-09-22T09:00:49.059957Z"}}